Regional Weather Roundup
Issued by NWS

Home | Current Version | Previous Version | Graphics & Text | Print | Product List | Glossary On
Versions: 1 2 3 4 5 6 7 8 9 10 11 12 13 14 15 16 17 18 19 20 21 22 23 24 25 26 27 28 29 30 31 32 33 34 35 36 37 38 39 40 41 42 43 44 45 46 47 48 49 50
678
ASUS43 KOAX 261702
RWRNE

WEATHER ROUNDUP FOR NEBRASKA
NATIONAL WEATHER SERVICE OMAHA NE
1200 PM CDT TUE JUL 26 2016

NOTES: SATELLITE DATA IS BEING USED TO AUGMENT CLOUD COVER ABOVE
       12000 FEET.
       "FAIR" INDICATES FEW OR NO CLOUDS BELOW 12,000 FEET WITH NO
       SIGNIFICANT WEATHER AND/OR OBSTRUCTIONS TO VISIBILITY.

  * THESE STATIONS DO NOT REPORT WEATHER SUCH AS RAIN...SNOW OR FOG.

NEZ001>004-019>022-054>056-261800-
NEBRASKA PANHANDLE

CITY           SKY/WX    TMP DP  RH WIND       PRES   REMARKS
SCOTTSBLUFF    SUNNY     85  56  37 NE6       30.06R
ALLIANCE       SUNNY     83  63  50 S10       30.07R
CHADRON        SUNNY     82  60  47 E13       30.04F
KIMBALL        CLOUDY    85  53  33 SW7       30.13S
SIDNEY         CLOUDY    84  58  40 S14       30.11S
$$

NEZ057>060-069>072-079>082-261800-
SOUTHWEST NEBRASKA

CITY           SKY/WX    TMP DP  RH WIND       PRES   REMARKS
NORTH PLATTE   SUNNY     82  66  58 S12       30.06F
IMPERIAL       SUNNY     82  66  58 S16       30.08S
LEXINGTON      SUNNY     79  67  66 S12       30.09F
MCCOOK         SUNNY     83  66  56 S13       30.07F
OGALLALA       SUNNY     84  66  53 S15       30.06F
$$

NEZ005>010-023>029-035>040-094-261800-
NORTH CENTRAL NEBRASKA

CITY           SKY/WX    TMP DP  RH WIND       PRES   REMARKS
VALENTINE      MOSUNNY   87  63  44 W13       30.09R
AINSWORTH      SUNNY     83  67  56 S13       30.06R
BROKEN BOW     SUNNY     79  68  69 S12       30.08F
O`NEILL        SUNNY     85  57  38 S13       30.07S
ORD            SUNNY     81  65  58 S10       30.06F
THEDFORD       SUNNY     84  65  51 S16       30.07S
$$

NEZ041-046>049-061>064-073>077-083>087-261800-
SOUTH CENTRAL NEBRASKA

CITY           SKY/WX    TMP DP  RH WIND       PRES   REMARKS
GRAND ISLAND   SUNNY     81  65  58 SE10G16   30.09F
AURORA         SUNNY     81  65  56 S10       30.09S
HASTINGS       SUNNY     82  66  58 S7        30.10S
HEBRON         SUNNY     83  66  56 S7        30.08S
HOLDREGE       SUNNY     78  66  66 S7        30.09F
KEARNEY *      SUNNY     81  66  61 S12       30.10S
YORK           SUNNY     81  68  65 S9        30.09F
$$

NEZ011>018-030>034-042>045-261800-
NORTHEAST NEBRASKA

CITY           SKY/WX    TMP DP  RH WIND       PRES   REMARKS
NORFOLK        SUNNY     81  65  58 S8        30.08F
ALBION         SUNNY     80  64  58 S9        30.09F
BLAIR          SUNNY     82  66  57 SE6       30.10R
FREMONT        SUNNY     82  63  52 SE9       30.10S
TEKAMAH        SUNNY     84  64  50 S9        30.09S
WAYNE          SUNNY     81  70  68 S10       30.09F
$$

NEZ050>053-065>068-078-088>093-261800-
SOUTHEAST NEBRASKA

CITY           SKY/WX    TMP DP  RH WIND       PRES   REMARKS
LINCOLN        SUNNY     84  66  54 SE8       30.09S
OMAHA EPPLEY   MOSUNNY   83  63  50 SE8       30.09R
BEATRICE       SUNNY     83  64  52 SE8       30.08S
FALLS CITY     SUNNY     82  68  62 E8        30.07S
NEBRASKA CITY  SUNNY     81  64  56 SE6       30.09S
PLATTSMOUTH    SUNNY     82  64  55 SE8       30.10R
$$

NEZ044-045-051>053-067-261800-
OMAHA AREA

CITY           SKY/WX    TMP DP  RH WIND       PRES   REMARKS
OMAHA EPPLEY   MOSUNNY   83  63  50 SE8       30.09R
BLAIR          SUNNY     82  66  57 SE6       30.10R
FREMONT        SUNNY     82  63  52 SE9       30.10S
MILLARD        SUNNY     83  64  54 SE8       30.09R
OFFUTT AFB     SUNNY     83  65  52 E7        30.08S
PLATTSMOUTH    SUNNY     82  64  55 SE8       30.10R
WAHOO          FAIR      82  64  54 SE8       30.09S
$$




USA.gov is the U.S. government's official web portal to all federal, state and local government web resources and services.